Regional Weather Roundup
Issued by NWS Bismarck, ND

Home | Current Version | Previous Version | Text Only | Print | Product List | Glossary On
Versions: 1 2 3 4 5 6 7 8 9 10 11 12 13 14 15 16 17 18 19 20 21 22 23 24 25 26 27 28 29 30 31 32 33 34 35 36 37 38 39 40 41 42 43 44 45 46 47 48 49 50
000
ASUS43 KBIS 180710
RWRBIS

NWR BROADCAST TEXT
NATIONAL WEATHER SERVICE BISMARCK ND
100 AM CST SUN FEB 18 2018

NOTE: "FAIR" INDICATES FEW OR NO CLOUDS BELOW 12,000 FEET WITH NO
SIGNIFICANT WEATHER AND/OR OBSTRUCTIONS TO VISIBILITY.


CITY           SKY/WX    TMP DP  RH WIND       PRES   REMARKS
WILLISTON      LGT SNOW  12   6  77 E13       29.79F WCI  -3
MINOT          CLOUDY    10   2  69 E8        29.86F WCI  -2
MINOT AFB      CLOUDY     9   2  72 E8        29.85F WCI  -3
BISMARCK       CLOUDY    17  10  74 NE9       29.81F WCI   6
DICKINSON      LGT SNOW  14  11  87 E16       29.62F FOG     WCI  -2
GARRISON         N/A     11   4  73 E12       29.82F WCI  -3
HETTINGER ARPT CLOUDY    16   9  74 E20       29.62F WCI  -1
JAMESTOWN      CLOUDY    13   8  81 S3        29.90F
CARRINGTON     FAIR      12   7  79 CALM      29.93F
LINTON         LGT SNOW  18  12  79 E9        29.82F WCI   6
OAKES            N/A     16  10  79 SE5       29.94F WCI   9
TIOGA          LGT SNOW   9   5  85 E9        29.80S WCI  -5
$$

CITY           SKY/WX    TMP DP  RH WIND       PRES   REMARKS
GRAND FORKS    MOCLDY    11   6  81 SE3       29.98F
GRAND FORKS AF FAIR       7   3  85 E5        29.98R WCI  -2
DEVILS LAKE    CLOUDY     6   1  80 NW3       29.93R
FARGO          CLOUDY    14   8  77 N3        29.99R
CANDO          CLOUDY     1  -2  85 N3        29.93S
CAVALIER         N/A      9   3  78 CALM      29.97S
GWINNER          N/A     16   9  73 CALM      29.95F
ROLLA          PTSUNNY    1  -4  78 NW5       29.88R WCI  -8
WALHALLA       FAIR       7   3  85 CALM      29.96S
$$

CITY           SKY/WX    TMP DP  RH WIND       PRES   REMARKS
ABERDEEN       LGT SNOW  21  15  78 E7        29.90F WCI  12
MOBRIDGE       CLOUDY    20  15  81 E17       29.70F WCI   5
BUFFALO          N/A     17   8  67 E15       29.48F WCI   2
RAPID CITY     CLOUDY    23  21  92 SE7       29.49F WCI  15
GLASGOW        LGT SNOW  11   7  84 NE24      29.67F VSB 3/4 WCI  -9
SIDNEY         LGT SNOW  13  10  88 NE14      29.71F FOG     WCI  -2
WOLF POINT     LGT SNOW  13   8  81 E18       29.73F VSB 3/4 WCI  -4
GLENDIVE       LGT SNOW  15  12  88 E18       29.61F FOG     WCI  -2
MILES CITY     CLOUDY    18  14  84 NE12      29.49F WCI   5
BAKER          CLOUDY    16  11  80 SE23      29.53F WCI  -2
$$

CITY           SKY/WX    TMP DP  RH WIND       PRES   REMARKS
BILLINGS       LGT SNOW  22  21  96 SW3       29.43R FOG
GREAT FALLS    HVY SNOW   7   3  84 NW16      29.67R VSB 1/4 WCI -11
REGINA         CLOUDY    -2  -6  84 W5        29.83S WCI -12
ESTEVAN        MOCLDY     5   0  78 E5        29.82S WCI  -4
$$





USA.gov is the U.S. government's official web portal to all federal, state and local government web resources and services.